Other Public Products
Issued by NWS Grand Forks, ND

Home | Current Version | Previous Version | Text Only | Print | Product List | Glossary Off
Versions: 1 2 3 4 5 6 7 8 9 10 11 12 13 14 15 16 17 18 19 20 21 22 23 24 25 26 27 28 29 30 31 32 33 34 35 36 37 38 39 40 41 42 43 44 45 46 47 48 49 50

000
FPUS83 KFGF 221831
OPUFGF
PRAIRIE TO PINES WEATHER ROUNDUP
NATIONAL WEATHER SERVICE EASTERN NORTH DAKOTA/GRAND FORKS ND
100 PM CDT SAT JUL 22 2017

 **SATELLITE DATA USED TO AUGMENT SKY COVER AT AUTOMATED STATIONS**
 *****  WEATHER ACROSS EASTERN NORTH DAKOTA  *****

CITY           SKY/WX    TMP DP  RH WIND       PRES   REMARKS
GRAND FORKS    FAIR      81  58  45 NW17G26   29.83F
6HR MIN TEMP:  65; 6HR MAX TEMP:  81;

GRAND FORKS AF FAIR      78  57  47 NW18G24   29.85F
GRAND CITY NWS NOT AVBL
BUXTON           N/A     80  61  53 NW13G25     N/A
DEVILS LAKE    FAIR      74  56  53 W17       29.91S
6HR MIN TEMP:  64; 6HR MAX TEMP:  74;

FARGO          FAIR      85  61  44 NW17      29.85S
6HR MIN TEMP:  67; 6HR MAX TEMP:  85;

WAHPETON ARPT  FAIR      81  63  54 NW14      29.87S
$$

 *****  WEATHER ACROSS CENTRAL AND WESTERN NORTH DAKOTA  *****

CITY           SKY/WX    TMP DP  RH WIND       PRES   REMARKS
JAMESTOWN      FAIR      82  52  35 NW13      29.91F
6HR MIN TEMP:  63; 6HR MAX TEMP:  82;

BISMARCK       FAIR      88  48  25 W20G25    29.94F
6HR MIN TEMP:  63; 6HR MAX TEMP:  88;

MINOT          FAIR      81  53  37 W14G23    29.92F
6HR MIN TEMP:  62; 6HR MAX TEMP:  81;

MINOT AFB      FAIR      77  52  41 N15G23    29.92S
6HR MIN TEMP:  57; 6HR MAX TEMP:  78;

GARRISON         N/A     79  50  36 NW18G30   29.94F
6HR MIN TEMP:  56; 6HR MAX TEMP:  80;

WILLISTON      FAIR      80  50  34 NW22G28   30.01R
6HR MIN TEMP:  59; 6HR MAX TEMP:  80;

DICKINSON      FAIR      84  43  23 NW26G33   30.00F
6HR MIN TEMP:  54; 6HR MAX TEMP:  84;

HETTINGER      FAIR      86  42  21 NW17      30.05F
6HR MIN TEMP:  51; 6HR MAX TEMP:  86;

$$

 *****  OTHER OBSERVATIONS NORTHEAST NORTH DAKOTA  *****

CITY           SKY/WX    TMP DP  RH WIND       PRES   REMARKS
WALHALLA       NOT AVBL
LANGDON        FAIR      72  61  68 NW16G24   29.88S
CAVALIER       FAIR      73  57  56 W20G26    29.82F
GRAFTON        FAIR      77  59  53 NW20      29.85S
CANDO          NOT AVBL
FORT TOTTEN      N/A     76  54  46 NW9       29.95S
ROLLA            N/A     70  55  60 NW23      29.91S
RUGBY          NOT AVBL
 ***** THE ABOVE OBSERVATIONS ARE NON NWS ARE NOT QUALITY
        CONTROLLED AND MAY MIS-REPORT RAIN FOR SNOW...
$$

 *****  OTHER OBSERVATIONS SOUTHEAST NORTH DAKOTA *****

CITY           SKY/WX    TMP DP  RH WIND       PRES   REMARKS
COOPERSTOWN    FAIR      79  57  47 NW17G23   29.90F
VALLEY CITY    FAIR      81  55  41 NW12G21   29.92S
OAKES          NOT AVBL
GWINNER        CLEAR     82  61  47 NW13G18   29.89S
SHEYENNE NWR     N/A     83  63  50 NW12      29.95S
BUFFALO          N/A     80  49  34 E13         N/A
WYNDMERE       NOT AVBL
 ***** THE ABOVE OBSERVATIONS ARE NON NWS ARE NOT QUALITY
       CONTROLLED AND MAY MIS-REPORT RAIN FOR SNOW...
$$

  *****  WEATHER ACROSS NORTHERN MINNESOTA  *****

CITY           SKY/WX    TMP DP  RH WIND       PRES   REMARKS
FLAG ISLAND    PTSUNNY   75  61  60 NW10      29.74S HAZE
WARROAD        FAIR      75  63  64 W15G22    29.77F
ROSEAU         FAIR      75  64  69 W14G20    29.78F
HALLOCK        FAIR      75  61  60 W16G22    29.81F
THF RVR FALLS  NOT AVBL
HALSTAD          N/A     79  59  50 NW17        N/A
FOSSTON        FAIR      77  59  53 NW15G23   29.85S
BAUDETTE       FAIR      80  57  45 W14G23    29.77S
6HR MIN TEMP:  61; 6HR MAX TEMP:  81;

WASKISH        FAIR      79  64  61 W12       29.80S
CROOKSTON      FAIR      81  55  41 NW21      29.84S
$$
  *****  WEATHER ACROSS CENTRAL AND WEST MINNESOTA  *****

CITY           SKY/WX    TMP DP  RH WIND       PRES   REMARKS
BEMIDJI        FAIR      79  63  57 W18       29.84R
PARK RAPIDS    FAIR      83  65  54 W17G26    29.85S
6HR MIN TEMP:  66; 6HR MAX TEMP:  83;

WADENA         FAIR      79  66  65 W13G18    29.86R
DETROIT LAKES  FAIR      79  63  57 NW17      29.88S
MOORHEAD       FAIR      82  63  51 NW17      29.86S
FERGUS FALLS   FAIR      81  70  69 NW14      29.86S
ELBOW LAKE     FAIR      79  70  73 NW16      29.88S HAZE
6HR MIN TEMP:  65; 6HR MAX TEMP:  79;

MORRIS MN      FAIR      86  66  51 N12       29.86S
STAPLES        FAIR      82  64  54 W13G23    29.85S
WHEATON        FAIR      84  68  58 W13       29.88S
$$
  *****  WEATHER ELSEWHERE ACROSS MINNESOTA  *****

CITY           SKY/WX    TMP DP  RH WIND       PRES   REMARKS
DULUTH         FAIR      66  61  84 SE10      29.84S
6HR MIN TEMP:  60; 6HR MAX TEMP:  70;

INTRNTL FALLS  PTSUNNY   75  66  73 W6        29.79S
6HR MIN TEMP:  58; 6HR MAX TEMP:  75; 6HR PCP: TRACE;

ELY            PTSUNNY   75  61  60 W9        29.82R
CLOQUET        FAIR      75  66  73 E5        29.84R
BRAINERD       FAIR      82  64  54 NW14      29.83S
6HR MIN TEMP:  66; 6HR MAX TEMP:  83; 6HR PCP:  0.14;

HIBBING        PTSUNNY   77  69  76 VRB6      29.82S
6HR MIN TEMP:  59; 6HR MAX TEMP:  77;

ALEXANDRIA     FAIR      81  69  67 NW13      29.89R
6HR MIN TEMP:  67; 6HR MAX TEMP:  81; 6HR PCP:  0.01;

SAINT CLOUD    FAIR      85  67  54 NW12      29.83S
6HR MIN TEMP:  65; 6HR MAX TEMP:  86;

MINNEAPOLIS    FAIR      86  68  54 W5        29.81F
6HR MIN TEMP:  71; 6HR MAX TEMP:  87;

$$

  *****  WEATHER ACROSS SOUTH DAKOTA  *****

CITY           SKY/WX    TMP DP  RH WIND       PRES   REMARKS
SIOUX FALLS    PTSUNNY   83  73  72 NW8       29.90F
6HR MIN TEMP:  69; 6HR MAX TEMP:  84;

BROOKINGS      FAIR      81  70  69 W13       29.93R
WATERTOWN      FAIR      81  71  71 NW8       29.92S
6HR MIN TEMP:  66; 6HR MAX TEMP:  81;

HURON          FAIR      83  71  67 N7        29.92F
6HR MIN TEMP:  65; 6HR MAX TEMP:  83;

SISSETON         N/A     86  69  56 NW13      29.87S HX  90
ABERDEEN       FAIR      85  68  56 VRB3      29.92S
6HR MIN TEMP:  66; 6HR MAX TEMP:  85;

MITCHELL       FAIR      85  71  63 VRB6      29.93S HX  90
PIERRE         FAIR      91  51  25 N10       29.95S
6HR MIN TEMP:  69; 6HR MAX TEMP:  92;

MOBRIDGE       FAIR      86  60  41 W10       29.94F
RAPID CITY     FAIR      86  37  17 NE12      30.09R
6HR MIN TEMP:  62; 6HR MAX TEMP:  87; 6HR PCP: TRACE;

$$

  *****  SOME WEATHER IN NEARBY STATES *****

CITY           SKY/WX    TMP DP  RH WIND       PRES   REMARKS
GLASGOW MT     FAIR      77  49  37 NW12      30.06F
6HR MIN TEMP:  58; 6HR MAX TEMP:  78;

GREAT FALLS MT FAIR      80  30  16 W10       30.15F
6HR MIN TEMP:  47; 6HR MAX TEMP:  80;

CHEYENNE WY    FAIR      82  46  28 VRB7      30.25S
6HR MIN TEMP:  59; 6HR MAX TEMP:  83;

SCOTTSBLUFF NE FAIR      89  54  30 E12       30.11S
6HR MIN TEMP:  63; 6HR MAX TEMP:  90;

OMAHA NE       FAIR      89  76  65 N12       29.85S HX 100
6HR MIN TEMP:  79; 6HR MAX TEMP:  89;

DES MOINES IA  PTSUNNY   88  76  67 N14       29.83R HX  99
6HR MIN TEMP:  77; 6HR MAX TEMP:  90;

DAVENPORT IA   PTSUNNY   81  72  74 SW6       29.85F
6HR MIN TEMP:  68; 6HR MAX TEMP:  81;

CHICAGO IL     PTSUNNY   82  69  64 NW6       29.83S
6HR MIN TEMP:  72; 6HR MAX TEMP:  82; 6HR PCP:  0.01;

EAU CLAIRE WI  FAIR      85  65  51 VRB6      29.81F
6HR MIN TEMP:  67; 6HR MAX TEMP:  85;

LA CROSSE WI   CLOUDY    79  71  76 CALM      29.83F
6HR MIN TEMP:  73; 6HR MAX TEMP:  79;

$$

  *****  SOME NATIONAL WEATHER *****

CITY           SKY/WX    TMP DP  RH WIND       PRES   REMARKS
LA GUARDIA NY  PTSUNNY   87  64  46 NE7       29.83F
6HR MIN TEMP:  80; 6HR MAX TEMP:  89;



USA.gov is the U.S. government's official web portal to all federal, state and local government web resources and services.